Weather History for Murray, KY

Change the Weather History Date:

Monday, December 30, 2013

  Actual Average (KPAH) Record (KPAH)
Temperature  
Mean Temperature 24 °F 35 °F  
Max Temperature 28 °F 43 °F 68 °F (1951)
Min Temperature 21 °F 26 °F -3 °F (1983)
Degree Days  
Heating Degree Days 40 30  
Month to date heating degree days 824  
Since 1 July heating degree days 1601  
Cooling Degree Days 0 0  
Month to date cooling degree days 0  
Year to date cooling degree days 1542  
Moisture  
Dew Point 19 °F    
Average Humidity 75    
Maximum Humidity 86    
Minimum Humidity 64    
Precipitation  
Precipitation 0.00 in 0.13 in 1.15 in (1984)
Month to date precipitation 4.46  
Year to date precipitation 48.95  
Snow  
Snow 0.00 in 0.10 in 2.00 in (1969)
Month to date snowfall 2.1  
Since 1 July snowfall 2.2  
Snow Depth -    
Sea Level Pressure  
Sea Level Pressure 30.27 in    
Wind  
Wind Speed 7 mph (NNW)    
Max Wind Speed 13 mph    
Max Gust Speed -    
Visibility 10 miles    
Events      
T = Trace of Precipitation, MM = Missing Value Source: NWS Daily Summary

Daily Weather History Graph

Daily Weather History Graph

Search for Another Location

Airport:

Trip Planner

Search our weather history database for the weather conditions in past years. The results will help you decide how hot, cold, wet, or windy it might be!

Date:

Astronomy

Dec. 30, 2013 Rise Set
Actual Time 7:05 AM CST 4:46 PM CST
Civil Twilight 6:36 AM CST 5:15 PM CST
Nautical Twilight 6:04 AM CST 5:48 PM CST
Astronomical Twilight 5:32 AM CST 6:19 PM CST
Moon 4:56 AM CST (12/30) 3:18 PM CST (12/30)
Length of Visible Light 10h 39m
Length of Day
9h 41m
Waning Crescent, 4% of the Moon is Illuminated
Dec 30
Waning Crescent
Jan 1
New
Jan 7
First Quarter
Jan 15
Full
Jan 23
Last Quarter

Hourly Weather History & Observations

Time (CST) Temp. Windchill Dew Point Humidity Pressure Visibility Wind Dir Wind Speed Gust Speed Precip Events Conditions
12:15 AM 28.4 °F 19.7 °F 23.0 °F 80% 30.20 in 10.0 mi NNW 9.2 mph - N/A   Overcast
12:35 AM 28.4 °F 18.0 °F 23.0 °F 80% 30.20 in 10.0 mi North 12.7 mph - N/A   Overcast
12:55 AM 26.6 °F 17.5 °F 21.2 °F 80% 30.21 in 10.0 mi North 9.2 mph - N/A   Overcast
1:15 AM 26.6 °F 16.8 °F 19.4 °F 74% 30.21 in 10.0 mi North 10.4 mph - N/A   Overcast
1:35 AM 26.6 °F 18.2 °F 19.4 °F 74% 30.21 in 10.0 mi North 8.1 mph - N/A   Overcast
1:55 AM 26.6 °F 20.0 °F 19.4 °F 74% 30.22 in 10.0 mi North 5.8 mph - N/A   Overcast
2:15 AM 26.6 °F 16.2 °F 19.4 °F 74% 30.23 in 10.0 mi North 11.5 mph - N/A   Overcast
2:35 AM 26.6 °F 18.2 °F 19.4 °F 74% 30.24 in 10.0 mi North 8.1 mph - N/A   Overcast
2:55 AM 24.8 °F 15.3 °F 19.4 °F 80% 30.24 in 10.0 mi North 9.2 mph - N/A   Overcast
3:15 AM 24.8 °F 16.1 °F 19.4 °F 80% 30.24 in 10.0 mi North 8.1 mph - N/A   Overcast
3:35 AM 24.8 °F 14.6 °F 19.4 °F 80% 30.24 in 10.0 mi North 10.4 mph - N/A   Overcast
3:55 AM 24.8 °F 14.0 °F 19.4 °F 80% 30.24 in 10.0 mi NNW 11.5 mph - N/A   Overcast
4:15 AM 24.8 °F 16.9 °F 19.4 °F 80% 30.25 in 10.0 mi North 6.9 mph - N/A   Overcast
4:35 AM 24.8 °F 15.3 °F 19.4 °F 80% 30.25 in 10.0 mi North 9.2 mph - N/A   Overcast
4:55 AM 24.8 °F 15.3 °F 19.4 °F 80% 30.26 in 10.0 mi NNW 9.2 mph - N/A   Overcast
5:15 AM 24.8 °F 14.0 °F 17.6 °F 74% 30.25 in 10.0 mi North 11.5 mph - N/A   Overcast
5:35 AM 24.8 °F 15.3 °F 17.6 °F 74% 30.25 in 10.0 mi North 9.2 mph - N/A   Overcast
5:55 AM 24.8 °F 14.6 °F 19.4 °F 80% 30.26 in 10.0 mi North 10.4 mph - N/A   Overcast
6:15 AM 24.8 °F 15.3 °F 19.4 °F 80% 30.26 in 10.0 mi North 9.2 mph - N/A   Overcast
6:35 AM 24.8 °F 16.1 °F 19.4 °F 80% 30.26 in 10.0 mi North 8.1 mph - N/A   Overcast
6:55 AM 24.8 °F 16.1 °F 19.4 °F 80% 30.28 in 10.0 mi North 8.1 mph - N/A   Overcast
7:15 AM 24.8 °F 16.9 °F 19.4 °F 80% 30.28 in 10.0 mi North 6.9 mph - N/A   Overcast
7:35 AM 23.0 °F 14.7 °F 17.6 °F 80% 30.29 in 10.0 mi NE 6.9 mph - N/A   Overcast
7:55 AM 23.0 °F 13.9 °F 17.6 °F 80% 30.30 in 10.0 mi North 8.1 mph - N/A   Overcast
8:15 AM 23.0 °F 13.9 °F 17.6 °F 80% 30.30 in 10.0 mi NNE 8.1 mph - N/A   Overcast
8:35 AM 24.8 °F 16.1 °F 17.6 °F 74% 30.29 in 10.0 mi North 8.1 mph - N/A   Overcast
8:55 AM 24.8 °F 15.3 °F 17.6 °F 74% 30.29 in 10.0 mi NNE 9.2 mph - N/A   Overcast
9:15 AM 24.8 °F 15.3 °F 17.6 °F 74% 30.30 in 10.0 mi NNE 9.2 mph - N/A   Overcast
9:35 AM 24.8 °F 14.6 °F 17.6 °F 74% 30.29 in 10.0 mi NE 10.4 mph - N/A   Mostly Cloudy
9:55 AM 24.8 °F 15.3 °F 17.6 °F 74% 30.29 in 10.0 mi NNE 9.2 mph - N/A   Mostly Cloudy
10:15 AM 24.8 °F 14.6 °F 17.6 °F 74% 30.30 in 10.0 mi NE 10.4 mph - N/A   Mostly Cloudy
10:35 AM 24.8 °F 16.1 °F 17.6 °F 74% 30.30 in 10.0 mi NE 8.1 mph - N/A   Partly Cloudy
10:55 AM 24.8 °F 19.1 °F 17.6 °F 74% 30.30 in 10.0 mi NNE 4.6 mph - N/A   Clear
11:15 AM 26.6 °F 20.0 °F 17.6 °F 69% 30.30 in 10.0 mi NE 5.8 mph - N/A   Clear
11:35 AM 26.6 °F 22.6 °F 17.6 °F 69% 30.29 in 10.0 mi NNE 3.5 mph - N/A   Clear
11:55 AM 26.6 °F 21.2 °F 19.4 °F 74% 30.27 in 10.0 mi NE 4.6 mph - N/A   Clear
12:15 PM 26.6 °F 21.2 °F 17.6 °F 69% 30.26 in 10.0 mi NNE 4.6 mph - N/A   Clear
12:35 PM 26.6 °F 22.6 °F 17.6 °F 69% 30.26 in 10.0 mi NNE 3.5 mph - N/A   Clear
12:55 PM 28.4 °F - 17.6 °F 64% 30.25 in 10.0 mi Calm Calm - N/A   Clear
1:15 PM 28.4 °F - 17.6 °F 64% 30.25 in 10.0 mi Calm Calm - N/A   Clear
1:35 PM 28.4 °F - 17.6 °F 64% 30.24 in 10.0 mi Calm Calm - N/A   Clear
1:55 PM 28.4 °F - 17.6 °F 64% 30.25 in 10.0 mi Calm Calm - N/A   Scattered Clouds
2:15 PM 28.4 °F 24.6 °F 19.4 °F 69% 30.23 in 10.0 mi NW 3.5 mph - N/A   Overcast
2:35 PM 28.4 °F - 19.4 °F 69% 30.23 in 10.0 mi Calm Calm - N/A   Mostly Cloudy
2:55 PM 28.4 °F 24.6 °F 19.4 °F 69% 30.24 in 10.0 mi WNW 3.5 mph - N/A   Mostly Cloudy
3:15 PM 28.4 °F 23.3 °F 19.4 °F 69% 30.24 in 10.0 mi NNW 4.6 mph - N/A   Partly Cloudy
3:35 PM 28.4 °F 23.3 °F 19.4 °F 69% 30.25 in 10.0 mi NW 4.6 mph - N/A   Partly Cloudy
3:55 PM 28.4 °F - 17.6 °F 64% 30.25 in 10.0 mi Calm Calm - N/A   Partly Cloudy
4:15 PM 28.4 °F - 17.6 °F 64% 30.25 in 10.0 mi Calm Calm - N/A   Mostly Cloudy
4:35 PM 28.4 °F - 17.6 °F 64% 30.26 in 10.0 mi Calm Calm - N/A   Overcast
4:55 PM 28.4 °F - 17.6 °F 64% 30.26 in 10.0 mi Calm Calm - N/A   Overcast
5:15 PM 26.6 °F - 17.6 °F 69% 30.25 in 10.0 mi Calm Calm - N/A   Mostly Cloudy
5:35 PM 28.4 °F - 19.4 °F 69% 30.25 in 10.0 mi Calm Calm - N/A   Scattered Clouds
5:55 PM 28.4 °F - 19.4 °F 69% 30.26 in 10.0 mi Calm Calm - N/A   Partly Cloudy
6:15 PM 28.4 °F - 19.4 °F 69% 30.26 in 10.0 mi Calm Calm - N/A   Partly Cloudy
6:35 PM 24.8 °F - 19.4 °F 80% 30.26 in 10.0 mi Calm Calm - N/A   Mostly Cloudy
6:55 PM 24.8 °F 19.1 °F 19.4 °F 80% 30.28 in 10.0 mi West 4.6 mph - N/A   Partly Cloudy
7:15 PM 24.8 °F 20.5 °F 21.2 °F 86% 30.28 in 10.0 mi West 3.5 mph - N/A   Clear
7:35 PM 24.8 °F - 19.4 °F 80% 30.28 in 10.0 mi Calm Calm - N/A   Clear
7:55 PM 24.8 °F 19.1 °F 19.4 °F 80% 30.29 in 10.0 mi WSW 4.6 mph - N/A   Clear
8:15 PM 23.0 °F 17.0 °F 17.6 °F 80% 30.28 in 10.0 mi SSW 4.6 mph - N/A   Clear
8:35 PM 23.0 °F 17.0 °F 19.4 °F 86% 30.29 in 10.0 mi SW 4.6 mph - N/A   Clear
8:55 PM 23.0 °F 18.4 °F 17.6 °F 80% 30.29 in 10.0 mi WSW 3.5 mph - N/A   Clear
9:15 PM 23.0 °F 17.0 °F 17.6 °F 80% 30.29 in 10.0 mi WSW 4.6 mph - N/A   Clear
9:35 PM 23.0 °F 15.8 °F 17.6 °F 80% 30.30 in 10.0 mi West 5.8 mph - N/A   Clear
9:55 PM 23.0 °F 17.0 °F 17.6 °F 80% 30.30 in 10.0 mi West 4.6 mph - N/A   Clear
10:15 PM 23.0 °F 15.8 °F 17.6 °F 80% 30.29 in 10.0 mi SW 5.8 mph - N/A   Clear
10:35 PM 23.0 °F 15.8 °F 17.6 °F 80% 30.30 in 10.0 mi WSW 5.8 mph - N/A   Clear
10:55 PM 23.0 °F 13.9 °F 17.6 °F 80% 30.32 in 10.0 mi WNW 8.1 mph - N/A   Clear
11:15 PM 23.0 °F 14.7 °F 17.6 °F 80% 30.31 in 10.0 mi West 6.9 mph - N/A   Clear
11:35 PM 21.2 °F 12.6 °F 17.6 °F 86% 30.31 in 10.0 mi West 6.9 mph - N/A   Clear
11:55 PM 21.2 °F 12.6 °F 17.6 °F 86% 30.31 in 10.0 mi WSW 6.9 mph - N/A   Clear